Theta_e
299 299 299 298 298 297 297 297 296 296 295 295 294 294 294 294 293 293 293 293 293 292 292 291 291 290 290 290 290 289 289 289 289 289 289 289 288 288 288 288 288 288 288 288 288 288 288 288 288 288 288 288 288 288 288 288 287 287 287 287 287 287
299 299 298 298 298 297 296 296 295 295 294 294 293 293 293 293 292 292 292 291 291 291 290 290 289 289 289 289 289 288 289 288 288 288 288 288 288 288 288 288 288 288 288 288 288 288 288 287 287 287 288 288 288 288 287 287 287 287 287 287 287 287
299 298 297 297 297 296 296 295 295 294 293 293 293 292 292 291 291 291 290 290 290 289 289 289 289 289 289 288 288 288 288 288 288 288 288 288 288 288 288 288 288 288 287 287 287 287 287 287 287 287 287 287 287 287 287 287 287 287 287 287 287 287
298 298 297 296 296 296 296 295 294 293 293 292 292 291 291 290 290 290 290 289 289 289 289 289 289 288 288 288 288 289 289 289 289 289 288 288 288 288 288 288 288 288 288 287 287 287 287 287 286 286 286 286 286 286 286 286 287 287 287 287 287 287
297 297 297 296 296 296 295 294 293 293 292 292 291 291 290 290 290 289 289 289 289 289 288 288 288 288 289 289 289 289 289 289 289 289 289 289 288 288 288 288 288 288 288 288 287 287 287 286 286 286 286 286 286 286 286 286 286 286 287 287 287 287
297 296 296 296 295 295 294 293 293 293 292 292 291 290 290 289 289 289 289 288 288 288 288 288 289 289 289 289 289 289 289 289 289 289 289 289 288 288 288 288 288 288 288 288 287 287 286 286 286 286 286 286 286 286 286 286 286 286 286 286 286 287
297 297 296 296 295 294 294 294 294 293 292 291 290 289 289 289 289 288 288 288 288 289 289 289 289 289 289 289 289 289 289 289 289 289 289 288 288 288 288 288 288 288 288 287 287 286 286 285 285 285 285 285 285 285 285 285 286 286 286 286 286 286
298 297 296 295 294 295 295 295 295 294 292 291 290 289 289 289 288 288 288 289 289 289 289 290 290 289 289 289 289 289 289 289 289 289 289 288 288 288 288 288 288 288 287 287 286 285 285 285 285 285 285 285 285 285 285 285 285 285 285 286 286 286
299 297 296 295 294 295 296 296 295 295 293 291 290 289 289 288 288 288 289 289 289 290 290 290 290 290 289 290 290 289 289 289 289 289 289 288 288 288 288 288 288 287 287 286 285 285 284 284 284 284 284 284 284 284 284 285 285 285 285 285 285 285
299 297 296 296 295 295 295 296 296 295 294 291 290 289 288 288 288 289 289 289 289 290 290 289 289 289 289 289 289 289 289 289 289 289 289 288 288 288 287 287 287 287 286 285 284 284 284 284 284 284 284 284 284 284 284 284 285 285 285 285 285 285
299 297 296 296 295 295 295 295 296 296 294 290 289 288 288 288 288 289 289 289 289 289 289 289 289 289 289 289 289 289 289 289 289 289 288 288 287 287 287 287 286 285 284 284 284 284 284 284 283 283 283 284 284 284 284 284 284 284 284 285 285 285
298 297 297 296 296 296 295 296 296 295 293 290 288 288 288 288 288 289 289 289 289 289 289 289 289 289 289 289 289 289 289 289 289 288 288 287 287 287 287 286 285 284 284 284 284 284 283 283 283 283 283 283 283 284 284 284 284 284 284 284 284 284
298 297 297 297 297 296 296 296 296 294 291 289 288 288 288 288 289 289 289 289 289 289 289 289 289 289 289 289 289 289 289 288 288 288 287 287 287 287 286 285 284 283 283 283 283 283 283 283 283 283 283 283 283 283 283 283 283 283 283 283 283 283
299 298 297 297 296 296 295 295 295 293 291 289 289 289 288 289 289 289 289 289 289 289 289 289 289 289 289 289 289 288 288 288 288 287 287 287 287 286 285 284 283 283 283 283 283 283 283 283 283 283 283 283 283 282 282 282 282 282 282 282 281 281
298 298 298 297 296 296 296 296 295 292 290 290 290 290 289 289 289 289 289 289 289 289 289 289 289 289 289 288 288 288 288 287 287 287 287 287 286 285 284 283 283 283 283 283 283 283 283 283 283 283 283 283 282 282 281 281 281 281 281 280 279 279
298 298 297 296 296 296 295 295 293 291 290 290 291 291 290 290 290 289 289 289 289 289 289 289 289 289 288 288 288 287 287 287 287 286 286 285 284 283 283 283 283 283 283 283 283 283 283 283 283 283 282 282 282 281 281 281 280 280 280 279 278 277
297 297 296 295 295 295 294 293 292 291 291 291 291 291 291 290 290 290 290 289 289 289 289 289 289 288 288 287 287 287 287 287 286 286 285 284 283 283 283 283 283 283 283 282 282 283 283 283 283 282 282 281 281 281 280 280 280 279 279 278 277 276
295 294 294 294 293 293 293 293 292 292 292 292 291 291 291 290 290 290 289 289 289 289 289 288 288 287 287 287 287 287 287 286 286 285 284 283 283 282 282 282 282 282 282 282 282 283 283 283 282 282 281 281 280 280 280 279 279 278 278 277 276 275
293 292 292 292 292 292 292 292 292 292 292 291 291 290 290 289 289 289 289 289 289 289 288 288 287 287 287 287 287 287 286 286 285 284 283 283 282 282 282 282 282 282 282 282 282 283 283 283 282 281 281 280 280 279 278 278 278 277 277 276 275 275
292 292 292 291 291 291 291 291 291 291 290 290 290 289 289 289 289 289 289 289 289 288 288 287 287 287 287 287 286 286 286 285 284 283 282 282 282 282 282 282 282 282 282 282 282 282 282 282 281 280 280 280 278 278 277 277 277 276 276 275 275 274
291 291 291 291 291 291 291 290 290 290 290 289 289 289 289 289 289 289 289 288 288 288 287 287 287 287 287 286 286 286 285 284 283 282 282 282 281 282 282 282 282 282 282 282 282 282 281 281 281 280 279 279 278 277 277 276 276 276 276 275 274 273
291 291 290 290 290 290 290 290 290 289 289 289 289 289 289 289 289 289 289 288 288 287 287 287 287 287 287 286 286 285 284 283 282 282 281 281 281 281 281 281 282 282 282 282 282 281 281 280 280 280 279 278 277 277 276 276 276 276 275 274 273 272
291 290 290 290 290 290 290 290 289 289 289 289 289 289 289 289 289 288 288 288 288 287 287 287 287 286 286 286 286 285 283 282 281 281 281 281 281 281 281 281 281 282 282 282 281 281 280 279 279 279 278 277 277 276 276 276 275 274 273 272 271 271
291 290 290 290 290 289 289 289 289 289 288 288 288 288 288 288 288 288 288 288 287 287 286 286 286 286 286 285 285 284 282 281 281 281 281 280 281 281 281 281 281 281 282 281 281 281 280 279 278 278 278 277 277 277 276 276 274 273 271 271 271 271
291 290 290 290 289 289 289 289 289 288 288 288 288 288 288 288 288 288 288 287 287 286 286 286 286 285 285 285 284 283 282 281 281 280 280 280 280 280 281 281 281 281 281 281 281 280 279 279 278 278 277 277 277 277 276 275 274 273 272 272 272 271
291 290 290 290 289 289 289 289 289 288 288 288 288 288 288 288 288 287 287 287 286 286 286 286 285 285 285 284 282 282 281 281 280 280 280 280 280 280 280 280 280 280 280 281 281 280 279 278 278 278 277 277 277 276 276 275 274 273 272 272 272 272
291 290 290 290 289 289 289 289 289 289 288 288 288 288 288 287 287 287 286 286 286 286 286 285 285 285 284 282 281 281 281 280 280 280 279 279 279 280 280 280 280 280 280 280 280 279 279 278 278 278 277 277 276 276 276 275 273 272 272 272 272 272
291 290 290 290 289 289 289 289 289 288 288 288 288 288 288 287 287 286 286 286 286 285 285 285 285 284 283 282 281 281 280 280 280 279 279 279 279 279 279 279 279 279 279 279 279 279 278 278 277 277 277 276 276 276 276 274 272 272 272 272 272 272
291 291 290 290 290 289 289 289 289 288 288 288 288 288 287 287 286 286 286 285 285 285 285 285 284 284 282 281 280 280 280 279 279 279 279 279 279 279 279 279 278 278 278 278 278 278 277 277 277 276 276 276 276 275 274 272 272 271 271 272 272 272
291 291 290 290 290 289 289 289 288 288 288 288 288 287 287 287 286 286 285 285 285 285 285 284 284 283 282 280 280 280 279 279 279 279 279 278 278 278 278 278 278 278 277 277 277 277 277 276 276 276 275 275 274 272 271 271 271 272 272 272 272 272
291 291 290 290 290 289 289 288 288 288 288 288 288 287 287 287 286 285 285 285 284 284 284 284 284 283 281 280 280 280 279 279 278 278 278 278 278 278 278 278 278 277 277 276 276 275 275 275 275 275 274 272 271 271 271 272 272 272 272 272 272 272
290 290 290 290 290 289 289 288 288 288 288 288 288 287 287 286 286 285 285 284 284 284 284 284 283 282 280 280 280 280 279 278 278 278 278 278 278 277 277 277 277 276 275 275 275 274 274 274 274 274 272 271 270 271 272 272 273 273 273 273 273 273
290 290 290 290 289 289 288 288 288 288 288 288 287 287 287 286 285 285 284 284 284 284 283 283 282 281 280 280 280 280 279 279 278 277 277 277 277 277 276 276 276 275 275 275 274 274 274 274 274 274 273 271 270 271 272 273 273 274 274 274 274 274
290 290 290 290 289 289 288 288 288 288 288 288 287 287 286 285 285 284 284 284 283 283 283 282 281 280 279 279 279 279 279 279 279 278 277 277 277 276 276 276 276 275 275 274 274 274 274 274 274 273 272 270 270 271 272 273 273 273 273 273 273 273
291 290 290 290 289 289 288 288 288 288 288 287 287 286 286 285 284 284 283 283 283 282 282 281 280 279 279 279 279 279 279 278 279 279 278 277 276 276 276 276 276 275 275 274 274 274 274 274 273 273 271 270 270 272 272 272 273 273 273 273 273 273
290 290 290 289 289 288 288 288 288 288 287 287 286 286 285 284 284 283 283 283 282 282 281 280 279 279 279 279 278 278 278 278 278 278 278 278 277 276 275 275 275 275 275 275 274 274 274 274 273 272 272 271 271 272 272 272 273 273 273 272 272 272
290 290 290 289 288 288 288 288 287 287 286 286 286 285 284 283 283 283 282 282 282 281 280 279 278 278 278 278 278 278 278 278 277 277 277 276 276 276 275 275 275 275 275 275 274 274 274 273 273 272 272 272 272 271 272 272 273 273 273 273 272 272
290 290 289 288 288 287 287 287 286 286 286 285 285 284 283 283 282 282 281 281 280 280 279 278 278 278 278 277 277 277 277 277 277 276 276 275 275 275 275 275 274 274 274 274 274 274 274 273 272 272 272 272 271 271 271 272 272 273 273 273 272 272
Wind_Speed
20 18 16 14 13 11 10 9 7 6 6 6 5 5 5 5 5 4 4 4 4 4 4 4 4 4 4 4 4 5 6 7 9 10 11 12 13 14 15 16 17 18 18 19 20 21 22 23 24 25 25 26 27 27 28 28 29 30 30 29 30 31
21 19 17 15 13 12 11 10 9 8 8 8 7 8 8 7 7 6 6 6 5 5 5 5 4 4 4 4 5 6 7 9 11 12 14 15 16 17 17 18 18 19 19 19 20 21 21 22 23 24 25 26 27 28 29 30 31 32 33 33 33 34
22 20 18 16 15 14 12 11 10 10 9 10 10 10 10 9 8 8 7 6 6 6 5 4 4 4 4 5 6 8 9 10 12 13 15 16 17 18 19 19 20 20 21 21 21 21 22 22 22 23 24 25 26 27 28 30 31 32 33 34 34 35
24 22 20 19 17 15 14 13 12 12 11 12 12 12 11 10 9 8 8 7 6 6 5 5 5 5 6 7 8 9 11 13 15 17 19 20 22 23 23 24 24 24 25 25 25 26 26 27 27 28 29 29 30 31 31 32 33 34 35 35 36 36
25 23 22 21 18 16 15 14 14 13 13 14 13 12 12 11 10 9 8 7 7 6 5 5 6 7 9 10 12 14 16 18 20 22 24 25 26 27 28 29 29 29 29 29 29 29 29 30 31 32 33 34 35 36 37 37 38 38 39 39 39 39
26 25 24 22 20 18 17 16 15 15 15 15 14 13 13 11 10 9 8 7 6 6 6 7 9 11 13 14 16 18 20 22 23 25 26 27 29 30 30 31 31 31 31 31 31 32 32 33 34 35 36 37 38 40 40 41 41 42 42 43 43 44
28 28 27 24 21 19 18 16 15 16 16 16 15 14 12 10 9 8 8 8 8 9 9 10 11 13 15 17 19 21 22 24 25 27 28 29 30 31 32 32 32 31 32 32 32 33 34 35 36 38 39 40 41 42 43 43 44 44 44 45 45 47
31 30 29 26 23 20 17 16 15 16 16 16 15 14 12 10 10 9 9 9 10 10 11 12 13 14 16 19 21 23 24 26 27 28 30 31 32 33 33 33 33 32 32 32 33 34 36 37 39 40 42 43 43 44 44 44 45 45 45 46 47 48
33 33 30 27 24 20 17 15 15 15 15 16 15 14 12 11 11 10 10 11 11 12 13 14 15 17 19 21 23 25 27 28 29 31 32 34 35 35 35 35 34 33 33 33 34 36 37 39 40 42 43 44 44 44 44 45 45 46 46 47 48 48
35 33 30 27 24 21 18 16 16 15 15 16 15 14 13 12 11 11 11 12 13 14 15 15 17 19 21 23 25 27 29 30 31 33 35 37 37 37 36 35 34 33 34 35 36 38 39 40 42 43 43 44 44 44 45 45 46 47 48 48 49 49
36 32 29 26 23 21 19 17 17 17 16 17 16 15 14 13 13 12 12 13 15 16 16 18 19 21 23 25 27 29 30 32 33 35 37 38 38 37 36 34 34 34 35 37 38 39 40 42 43 43 43 43 44 44 45 46 47 48 49 49 50 50
33 30 28 25 23 21 20 19 18 18 17 16 16 15 15 15 15 14 15 16 17 17 18 20 21 23 25 26 28 30 32 34 35 37 38 38 37 36 34 34 34 36 37 38 39 41 42 42 42 42 42 42 43 45 46 47 48 48 49 50 51 51
25 26 26 25 22 20 19 19 18 17 16 16 16 16 16 16 16 17 17 18 19 19 20 21 23 24 25 27 28 31 33 35 36 37 38 37 36 34 34 34 36 37 38 39 40 41 42 42 42 41 42 42 43 45 46 47 48 48 49 50 51 52
18 20 23 23 20 19 18 18 17 17 17 16 16 16 17 18 19 19 20 20 21 21 22 23 24 24 25 27 29 31 33 35 36 37 37 36 34 34 34 36 37 38 39 39 40 41 42 42 41 41 42 43 44 44 45 46 48 48 49 49 49 50
13 15 18 19 18 17 16 17 17 18 17 16 16 17 19 20 21 21 22 22 23 23 23 23 23 24 25 27 29 32 33 35 36 36 35 34 34 34 36 37 38 38 39 40 41 41 42 42 41 41 42 43 44 44 44 45 46 47 48 48 47 47
12 13 14 15 16 16 16 17 17 18 18 17 19 20 21 22 23 24 24 24 24 23 22 22 23 24 26 28 30 32 33 35 35 35 35 34 35 36 37 38 38 38 39 40 41 41 42 41 41 42 42 43 43 43 43 44 46 46 46 46 46 46
14 14 15 16 17 18 19 19 19 19 20 21 22 22 23 24 24 24 24 23 22 21 21 22 23 25 27 29 31 33 34 35 35 35 35 35 36 37 38 38 38 38 40 40 40 41 41 41 41 42 42 43 43 43 43 44 45 45 46 45 45 44
13 13 14 15 17 18 19 19 20 21 22 23 23 23 23 22 22 22 22 21 21 20 21 23 25 27 29 30 32 33 34 35 35 35 35 36 37 37 37 37 38 39 40 40 40 41 41 41 41 41 42 42 42 42 43 44 44 44 44 44 43 43
11 12 13 14 15 17 18 19 21 22 22 22 21 21 21 21 22 22 22 21 21 21 23 24 26 28 30 31 33 34 35 35 35 35 35 37 37 37 36 36 37 38 39 39 39 40 41 41 41 41 42 41 41 41 42 42 42 42 43 42 42 41
11 11 12 13 14 16 17 18 19 20 20 20 20 21 22 23 23 23 23 23 22 23 24 26 28 29 31 32 33 34 35 35 35 35 36 37 37 36 35 36 37 38 38 38 38 39 41 42 41 41 41 41 40 39 40 40 40 41 41 41 40 39
11 11 13 15 16 17 18 18 18 19 19 20 21 22 23 24 24 25 25 24 24 25 26 27 29 31 31 32 33 34 35 34 34 35 36 36 36 35 35 36 37 37 37 37 38 39 40 41 41 40 40 40 39 37 37 37 38 40 40 40 39 38
11 12 14 15 17 17 18 18 18 19 20 21 22 23 24 25 26 26 26 26 26 26 28 29 30 31 31 32 33 34 34 34 34 35 35 35 34 34 35 35 36 37 37 37 38 39 39 40 41 40 39 39 37 35 34 35 36 37 39 39 39 39
11 13 14 15 17 18 18 18 19 20 20 22 23 24 25 26 27 28 28 28 27 28 29 30 30 31 31 31 33 34 34 33 34 35 35 34 33 34 34 35 35 36 37 37 38 39 39 39 39 40 39 37 35 33 31 32 33 35 37 38 38 38
14 14 15 16 18 19 19 20 20 20 21 23 24 25 26 27 28 29 29 29 28 28 29 30 30 31 31 31 33 33 33 33 34 34 33 33 33 33 34 34 34 36 37 38 39 40 39 38 38 38 37 35 33 31 29 29 29 30 32 36 37 38
16 16 16 17 18 20 21 21 21 21 22 23 24 26 28 29 29 30 30 29 29 29 29 30 30 30 31 32 32 33 33 33 33 33 32 32 32 33 33 33 34 36 37 38 39 40 39 38 37 36 34 33 31 29 27 26 26 27 29 33 37 38
18 18 19 19 20 21 22 22 22 22 23 24 26 27 29 30 30 31 30 29 29 29 29 30 30 30 31 31 32 32 32 33 33 32 31 30 31 32 32 33 34 36 37 39 40 40 40 39 38 36 34 33 32 31 30 28 27 27 29 32 36 39
20 20 22 22 22 23 23 23 23 24 24 26 27 30 31 31 31 31 30 29 29 29 30 30 29 30 31 31 31 31 32 32 32 31 30 29 29 30 32 33 34 35 37 39 41 42 41 40 38 36 34 33 32 31 30 29 30 31 32 33 37 39
23 24 25 25 26 25 25 25 25 24 25 27 29 31 32 32 32 31 30 29 29 29 30 30 29 30 31 30 30 31 32 32 32 31 30 29 29 30 31 32 33 35 37 38 40 41 41 39 37 35 32 31 31 31 31 32 34 35 35 35 37 38
28 27 28 28 28 28 27 26 25 25 26 28 30 32 33 33 32 31 30 30 30 30 30 30 30 31 30 30 30 31 31 30 30 30 29 28 28 29 30 31 33 34 36 37 39 40 39 37 35 32 29 29 30 32 33 35 36 37 37 38 39 40
31 31 31 31 30 30 29 27 24 24 26 28 30 32 33 33 33 32 31 31 30 30 30 31 31 31 30 29 29 30 30 29 29 29 28 27 27 28 30 31 32 33 34 36 37 38 38 36 32 29 28 29 30 32 33 35 36 37 38 38 39 39
32 33 33 33 32 31 30 27 24 24 25 27 29 31 33 34 34 33 32 31 31 31 31 31 32 31 30 29 29 29 30 29 28 28 28 26 25 27 29 31 32 33 33 34 35 34 34 33 31 28 26 26 27 28 31 33 34 35 36 36 36 37
31 31 32 34 34 32 30 27 25 25 26 27 29 31 33 35 35 33 32 32 31 31 31 31 31 30 30 29 29 29 30 28 26 26 27 27 26 26 27 29 31 31 30 31 30 29 28 29 28 27 25 24 25 26 28 30 32 33 35 36 36 37
28 28 29 31 33 33 32 29 26 26 27 27 28 30 33 34 34 34 33 32 32 31 31 31 30 30 29 29 29 30 30 29 26 23 23 25 27 26 25 26 28 28 27 26 26 26 25 25 24 24 24 23 24 27 28 29 31 32 34 35 35 36
27 28 28 28 32 34 33 30 28 27 28 28 29 31 33 34 34 33 32 32 31 31 30 30 30 29 29 28 28 29 30 31 30 26 21 20 22 25 26 25 26 26 25 24 23 24 24 23 23 23 22 22 24 27 28 29 29 31 31 31 31 32
27 28 27 28 31 35 34 31 29 28 28 28 29 31 32 33 33 32 31 31 31 30 30 29 29 29 28 28 28 28 29 30 31 30 27 22 19 20 22 24 25 25 24 23 21 21 21 22 22 21 20 21 24 27 27 27 28 28 28 28 27 27
26 27 27 29 32 35 35 32 29 28 28 28 29 31 32 32 32 31 31 30 30 30 29 28 28 28 28 28 27 28 28 29 29 30 30 28 25 21 19 19 20 22 24 24 22 21 21 21 21 20 20 21 24 25 26 27 25 24 24 25 27 28
28 28 29 29 32 35 34 31 28 28 28 29 30 31 31 31 31 31 30 30 30 29 28 28 28 28 28 28 27 27 28 28 28 28 28 28 29 27 23 19 17 17 19 23 24 22 21 21 20 19 19 21 23 24 25 26 25 23 23 24 25 27
29 29 29 29 33 35 32 28 26 27 28 29 30 30 30 30 30 30 30 29 29 29 28 28 28 28 27 27 27 27 27 27 27 27 26 26 27 27 26 24 20 16 16 18 21 22 21 20 19 19 18 19 21 23 25 25 25 25 24 24 24 26
Wind_Direction
184 184 182 182 181 181 181 180 179 180 187 193 196 206 209 209 212 216 220 224 232 240 242 252 259 266 274 281 290 296 301 305 310 313 315 317 318 317 316 315 315 314 314 313 313 313 313 313 314 314 313 313 312 312 311 311 310 309 309 309 308 308
190 190 190 190 189 190 190 190 194 197 201 205 209 217 219 218 220 220 224 227 231 235 236 242 253 265 283 296 310 316 319 322 323 325 325 324 323 321 319 317 316 314 313 313 312 311 311 310 310 308 307 307 306 306 306 306 306 305 305 305 305 306
195 196 195 198 197 197 197 198 203 206 209 213 217 221 220 220 222 221 225 228 230 237 242 253 269 287 305 318 325 327 329 330 330 330 329 327 325 322 319 318 316 315 315 314 313 312 311 310 308 306 304 303 302 301 301 301 301 300 301 301 301 302
201 201 201 203 203 203 203 204 208 211 215 220 221 221 220 220 223 225 232 236 238 246 254 266 286 302 316 325 329 331 334 334 334 335 333 332 330 328 325 323 321 320 319 318 317 316 314 313 312 311 309 308 307 306 305 305 304 303 302 302 301 301
207 207 208 209 208 207 209 209 212 216 222 225 224 223 222 224 228 232 236 240 244 254 269 290 310 322 328 331 332 333 335 334 334 333 332 331 330 328 327 324 322 321 319 318 317 316 315 314 313 312 312 311 311 310 309 309 308 307 306 305 304 304
213 214 215 215 211 210 212 212 216 222 226 228 226 225 226 228 232 236 240 248 261 276 294 311 321 328 330 330 330 331 332 332 331 331 329 328 327 326 324 322 320 319 317 316 316 315 315 314 313 313 313 312 312 311 310 310 309 308 308 307 307 307
219 220 221 219 215 213 214 215 220 227 230 230 228 226 228 233 237 241 250 263 274 285 299 311 319 325 326 327 327 328 328 328 327 326 325 324 324 322 321 319 317 316 315 314 314 313 313 313 313 313 313 313 312 311 310 309 308 308 307 307 307 308
224 225 225 223 219 218 219 220 224 229 232 231 229 230 233 238 241 246 257 267 277 289 301 310 316 322 324 324 326 325 325 324 323 323 322 322 322 320 319 317 315 314 313 312 312 312 312 313 312 312 312 311 311 310 309 308 308 308 307 307 307 307
230 229 228 225 223 223 224 225 228 233 237 236 234 234 234 235 238 245 257 269 282 293 301 308 314 319 321 322 323 322 322 322 321 321 321 320 320 319 317 316 314 313 312 311 312 311 311 311 311 311 311 310 309 309 308 308 307 307 307 307 307 306
234 232 229 227 226 227 229 231 233 237 240 238 234 232 230 231 237 246 258 271 283 291 298 305 310 314 317 317 318 319 319 319 318 318 318 318 318 317 315 314 312 311 310 311 311 310 310 310 309 310 310 309 309 309 308 308 308 307 307 307 306 306
238 235 231 228 228 230 233 233 235 238 239 233 226 225 226 229 237 247 258 269 279 287 294 300 305 309 312 313 314 315 315 315 315 315 315 315 315 314 312 310 309 309 309 309 309 309 309 309 310 310 311 310 310 310 309 309 309 308 308 307 306 306
242 239 233 230 230 233 235 235 237 241 238 229 223 224 227 231 239 249 258 267 276 283 290 295 300 304 307 309 311 311 312 312 312 312 312 312 311 310 309 308 308 308 308 308 308 308 309 309 310 311 312 312 312 312 311 310 310 310 309 308 308 307
245 240 233 230 231 234 235 236 239 241 236 227 225 227 231 236 244 251 258 265 273 280 286 292 297 300 303 306 307 308 308 308 308 309 309 309 308 307 306 307 307 308 307 307 308 308 309 309 311 312 313 314 315 314 313 312 312 311 311 310 309 307
238 236 231 229 230 231 233 237 241 240 233 227 228 233 238 243 249 253 258 264 271 277 283 289 293 297 299 302 304 304 305 305 306 307 307 306 305 305 305 306 306 307 307 308 308 309 309 310 312 314 315 315 316 315 314 313 313 312 311 310 309 309
232 230 228 226 228 232 238 244 244 239 233 232 237 242 245 249 252 256 260 265 270 276 281 286 290 294 296 298 300 302 303 304 305 306 305 304 303 304 305 306 306 307 308 308 309 309 310 311 313 315 316 316 316 316 315 313 312 311 311 310 310 310
227 224 223 226 232 238 243 244 241 236 233 237 243 247 251 255 258 261 264 267 271 275 279 284 287 290 292 295 298 301 303 305 306 306 304 303 303 304 306 306 307 308 309 309 310 310 310 312 314 316 316 316 316 316 314 312 311 312 312 311 311 311
221 222 225 231 236 240 240 238 235 233 234 239 246 251 257 262 264 266 267 268 270 273 277 281 284 287 291 296 300 302 304 305 306 305 303 303 304 305 306 307 308 309 310 310 311 311 311 313 316 317 317 316 317 316 314 313 313 313 313 313 313 312
225 229 233 238 240 240 240 239 238 238 240 245 250 255 261 265 266 266 266 266 268 271 275 278 283 288 294 299 302 303 305 305 304 303 302 303 304 306 307 308 309 310 310 311 311 311 312 314 317 317 317 317 318 316 315 315 315 315 314 314 314 313
227 230 233 236 237 238 241 242 243 246 247 250 255 260 264 266 267 266 266 266 267 270 273 278 285 293 298 301 302 304 304 304 303 302 303 303 305 306 307 308 309 310 310 311 312 312 313 315 317 318 318 319 319 318 317 317 316 315 314 313 313 312
227 232 237 239 239 240 240 242 246 249 252 256 262 266 266 266 266 265 264 264 265 268 273 281 290 296 299 301 302 304 303 302 301 302 304 304 305 306 307 308 309 310 310 312 313 314 314 315 317 319 319 320 320 319 318 317 315 314 313 314 313 312
233 241 246 247 248 248 246 246 249 252 257 262 264 265 265 265 264 263 261 261 263 268 276 285 293 297 299 300 302 302 301 301 302 303 304 304 305 306 308 309 309 310 311 312 313 314 315 316 318 320 320 321 322 321 319 316 314 313 313 313 313 312
245 255 259 258 256 254 251 251 254 257 261 264 264 264 265 264 263 261 260 260 264 271 280 289 295 297 298 299 300 301 300 301 303 304 304 304 305 307 309 309 310 310 312 313 314 315 316 317 318 320 322 322 322 320 317 314 312 313 314 315 315 314
263 269 269 265 260 257 256 255 258 262 264 264 265 266 266 263 262 261 260 262 267 275 284 291 295 297 297 298 299 299 300 302 304 304 304 304 306 308 309 310 310 311 312 313 314 314 316 318 319 321 322 321 321 319 316 313 313 316 315 313 312 310
270 268 264 263 261 260 260 259 261 264 265 266 269 268 266 264 263 262 262 264 271 279 287 292 295 296 297 297 298 298 300 303 304 303 303 305 307 308 309 310 311 311 312 313 313 314 316 318 320 321 320 320 320 318 315 313 314 313 309 306 306 306
268 264 260 261 260 260 260 260 262 264 267 271 272 268 266 265 264 263 264 267 274 283 289 294 296 297 297 296 296 297 300 303 303 302 303 305 307 309 309 310 311 312 312 312 313 314 316 317 319 320 320 321 321 320 318 317 315 312 307 304 305 305
267 261 257 256 256 258 258 259 261 264 268 273 272 269 268 267 265 265 266 270 277 285 290 294 295 296 296 295 295 297 301 303 302 302 303 305 307 308 309 310 311 311 312 312 313 314 315 317 319 321 323 325 326 325 324 322 320 318 313 308 305 305
266 261 256 255 255 256 257 258 260 264 269 272 271 269 269 268 267 267 268 273 280 286 290 293 294 295 295 294 295 298 301 302 302 302 303 305 307 308 309 310 311 311 311 312 312 313 316 318 321 325 328 330 328 326 325 325 325 324 318 309 305 306
261 258 256 255 254 254 256 257 259 265 270 272 271 270 269 267 267 268 270 275 282 286 289 292 293 294 294 294 296 299 301 302 302 302 304 306 307 308 308 309 310 310 310 311 312 313 316 319 324 329 332 330 327 327 329 330 328 324 318 310 308 309
259 259 259 257 255 255 255 255 259 265 269 271 271 270 269 267 268 269 272 277 282 286 289 291 292 293 292 293 296 299 301 302 302 302 304 306 306 307 307 308 308 309 310 311 312 313 316 321 327 332 332 330 330 331 330 328 325 323 320 318 317 317
260 261 262 261 258 256 254 254 259 264 268 271 272 271 269 269 269 270 272 277 282 285 288 290 291 291 291 292 296 299 301 301 301 301 303 304 305 306 306 306 307 308 310 311 313 315 319 323 328 332 333 333 332 328 325 323 323 322 320 318 316 313
263 263 263 262 260 255 251 251 256 262 267 270 271 271 270 269 268 270 272 277 281 284 286 288 288 289 290 292 296 299 300 301 301 301 302 303 303 304 305 306 307 310 313 314 315 318 320 322 326 332 333 330 328 324 320 319 319 316 313 311 311 308
268 267 265 262 258 252 247 248 254 261 266 269 270 270 269 267 267 269 273 277 281 282 283 285 286 287 289 292 296 299 300 300 299 300 303 305 305 305 306 307 308 311 312 311 311 313 313 317 324 328 328 328 327 321 317 317 317 316 315 314 315 314
267 267 265 260 254 247 244 247 254 261 265 267 269 269 267 266 267 269 273 277 279 280 281 283 285 286 288 291 296 299 300 300 299 298 301 303 304 304 303 302 304 305 304 304 305 307 310 315 320 323 327 330 324 317 318 323 325 324 323 323 323 322
265 265 266 261 251 243 243 248 255 261 264 266 267 267 266 266 268 270 273 276 277 278 280 282 283 284 286 290 294 297 299 300 301 300 299 297 298 300 300 300 301 301 299 299 301 304 310 315 318 322 328 326 317 316 323 330 329 328 328 328 327 325
268 267 266 260 250 244 244 250 256 260 263 265 266 267 267 267 269 271 274 275 276 278 279 280 280 282 285 289 292 295 297 298 300 302 301 299 295 294 296 299 300 299 297 296 298 302 308 314 318 323 324 318 315 321 327 330 331 332 332 333 334 334
270 269 267 260 249 244 246 252 257 260 263 265 267 268 268 269 271 273 274 275 277 278 278 278 278 280 284 287 291 293 295 296 297 300 302 303 302 298 295 293 294 295 295 296 299 304 309 314 318 320 318 316 319 324 327 328 331 333 334 339 345 347
270 270 268 260 249 244 247 253 257 260 263 266 268 269 269 270 272 274 274 276 276 277 277 276 277 279 282 285 288 291 292 294 296 297 299 302 303 304 303 299 293 290 290 293 299 306 312 316 318 317 315 318 322 324 325 327 331 334 339 347 351 352
270 269 267 259 249 246 249 253 257 261 265 268 269 270 271 272 274 275 275 275 276 276 275 275 275 278 281 284 287 289 290 291 294 296 297 298 299 301 303 303 301 296 289 289 295 302 307 312 314 313 316 321 325 325 326 329 334 339 346 351 353 353